Flag for Poland Weather past 2 weeks in Tarnów, Poland

Now
77 °F

Mild.


Feels Like: 78 °F
Forecast: 57 / 74 °F
Wind: 2 mph from South

Location: Tarnow

Current Time: Jul 8, 2015 at 7:36:27 AM

Latest Report: Jul 8, 2015 at 6:00 AM


Visibility: 16 mi

Pressure: 29.69 "Hg

Humidity: 62%

Dew point: 63 °F

Location of TarnówLocation

Historic Weather in Tarnów — Graph

°F

Tarnów temperature yesterday

Maximum temperature yesterday: 90 °F (at 6:00 PM)
Minimum temperature yesterday: 62 °F (at 4:00 AM)
Average temperature yesterday: 78 °F

Past Weeks' High & Low Weather Summary

 TemperatureHumidityPressure
High94 °F (Jul 6, 2:00 PM)98% (Jun 28, 6:00 AM)30.39 "Hg (Jun 28, 6:00 AM)
Low48 °F (Jun 25, 6:00 AM)22% (Jul 7, 4:00 PM)29.70 "Hg (Jul 8, 5:00 AM)
Average67 °F65%30.11 "Hg
* Reported Jun 23 5:00 AM — Jul 8 5:00 AM, Tarnów, Weather by CustomWeather, © 2015

Note: Actual official high and low records may vary slightly from our data, if they occured in-between our weather recording intervals... More about our weather records

Advertising

Tarnów weather history for previous 24 hours

 ConditionsComfort  
Time TempWeatherWind HumidityBarometerVisibility
5:00 AM
Wed, Jul 8
76 °FMild.2 mph62%29.70 "Hg17 mi
4:00 AM77 °FWarm.2 mph59%29.72 "Hg17 mi
3:00 AM77 °FMild.2 mph59%29.73 "Hg17 mi
2:00 AM77 °FWarm.2 mph59%29.73 "Hg16 mi
1:00 AM71 °FMild.1 mph73%29.76 "Hg13 mi
12:00 AM73 °FMild.1 mph63%29.79 "Hg16 mi
11:00 PM
Tue, Jul 7
75 °FMild.1 mph55%29.81 "Hg17 mi
10:00 PM76 °FMild.2 mph51%29.83 "Hg18 mi
9:00 PM78 °FWarm.1 mph46%29.85 "Hg11 mi
8:00 PM83 °FWarm.1 mph41%29.86 "Hg11 mi
7:00 PM88 °FPleasantly warm.1 mph27%29.87 "Hg25 mi
6:00 PM90 °FHot.1 mph25%29.88 "Hg22 mi
5:00 PM89 °FHot.1 mph23%29.90 "Hg25 mi
4:00 PM89 °FHot.2 mph22%29.92 "Hg22 mi
3:00 PM89 °FHot.2 mph29%29.94 "Hg19 mi
2:00 PM86 °FPleasantly warm.2 mph32%29.97 "Hg16 mi
1:00 PM84 °FPleasantly warm.2 mph38%29.99 "Hg16 mi
12:00 PM82 °FWarm.2 mph42%30.02 "Hg17 mi
11:00 AM81 °FWarm.2 mph47%30.03 "Hg11 mi
10:00 AM78 °FWarm.1 mph50%30.05 "Hg17 mi
9:00 AM76 °FMild.2 mph55%30.07 "Hg22 mi
8:00 AM73 °FMild.1 mph68%30.09 "Hg11 mi
7:00 AM68 °FMild.No wind83%30.10 "Hg8 mi
Weather by CustomWeather, © 2015

See weather overviewHow to use our weather pages